Date,TemperatureHighF,TemperatureAvgF,TemperatureLowF,DewpointHighF,DewpointAvgF,DewpointLowF,HumidityHigh,HumidityAvg,HumidityLow,PressureMaxIn,PressureMinIn,WindSpeedMaxMPH,WindSpeedAvgMPH,GustSpeedMaxMPH,PrecipitationSumIn
2013-2-1,18.2,14.2,9.2,11.0,6.7,2.0,84,72,63,30.02,29.46,20,5,51,0.01
2013-2-2,17.9,11.8,4.9,9.0,3.3,-3.0,85,69,55,30.18,30.01,10,2,25,0.00
2013-2-3,21.7,14.9,7.4,11.0,7.5,4.0,86,73,55,30.02,29.72,7,1,12,0.00
2013-2-4,16.4,12.8,8.8,10.0,6.0,2.0,84,74,60,29.88,29.70,10,2,25,0.00
2013-2-5,22.5,14.5,4.2,14.0,6.5,1.0,87,71,56,29.98,29.88,5,0,18,0.00
2013-2-6,25.0,18.8,13.0,19.0,10.5,-1.0,93,71,47,30.24,29.87,11,3,23,0.00
2013-2-7,21.0,14.4,5.1,6.0,1.3,-4.0,68,57,46,30.47,30.25,8,1,16,0.00
2013-2-8,18.6,15.6,12.1,16.0,11.1,4.0,92,83,58,30.41,29.77,13,3,22,0.42
2013-2-9,14.9,9.9,5.8,13.0,5.5,-2.0,91,83,68,30.25,29.76,30,9,46,0.25
2013-2-10,35.4,20.2,6.8,7.0,1.6,-3.0,68,47,23,30.46,30.25,19,3,26,0.00
2013-2-11,40.6,28.8,19.2,39.0,21.7,0.0,97,78,35,30.29,29.61,16,4,24,0.23
2013-2-12,29.5,27.6,24.5,26.0,24.0,20.0,90,86,80,29.82,29.58,14,6,33,0.00
2013-2-13,28.1,24.8,21.2,21.0,19.1,16.0,87,79,69,29.81,29.70,9,2,19,0.00
2013-2-14,34.8,26.7,19.7,22.0,18.3,15.0,82,71,55,29.93,29.69,8,1,18,0.00
2013-2-15,40.3,32.8,27.8,27.0,23.9,19.0,91,70,57,29.91,29.85,10,2,24,0.01
2013-2-16,28.1,22.8,16.1,23.0,15.4,5.0,87,73,60,29.91,29.73,12,3,19,0.00
2013-2-17,15.8,9.5,3.0,5.0,-0.5,-5.0,83,64,54,29.73,29.50,31,9,37,0.00
2013-2-18,18.8,10.0,1.8,1.0,-3.3,-6.0,72,56,37,30.16,29.73,20,6,39,0.00
2013-2-19,32.3,26.1,11.8,31.0,15.5,-2.0,96,67,37,30.17,29.55,15,3,19,0.15
2013-2-20,30.8,18.5,14.5,29.0,14.4,10.0,92,84,76,29.76,29.55,14,4,27,0.01
2013-2-21,19.9,15.2,10.4,15.0,9.2,5.0,85,77,67,30.28,29.71,22,7,29,0.00
2013-2-22,32.7,24.7,16.9,19.0,16.9,14.0,88,73,57,30.39,30.25,18,4,27,0.00
2013-2-23,27.3,25.3,23.2,26.0,23.7,19.0,96,93,76,30.24,29.89,10,3,16,0.10
2013-2-24,33.0,28.9,25.2,30.0,27.1,23.0,95,93,88,29.88,29.71,9,1,16,0.16
2013-2-25,30.5,26.3,22.7,28.0,23.1,20.0,92,87,80,30.21,29.88,10,2,20,0.00
2013-2-26,32.2,28.2,23.5,27.0,24.5,21.0,92,86,78,30.29,30.10,10,3,15,0.00
2013-2-27,31.1,28.4,25.8,30.0,27.2,23.0,97,95,88,30.10,29.60,10,3,21,0.83
2013-2-28,34.2,30.4,26.2,34.0,29.6,25.0,98,97,96,29.59,29.52,7,1,14,0.07